AZA1961 GOBD-LIRN

Flight info

Callsign AZA1961
Flight time 4h 47m
Altitude 35000
Route 22N010W DCT BRENA UG864 CHAMI DCT MEZAB/N0489F370 DCT CSO UG859 ANB/N0489F360 DCT PNZ
Aircraft MD11/H-SDE1E2E3FGHIJ2J3J4J5M1RWXY/LB1D1

Departure

Time 2026-04-22 12:50
Airport Blaise Diagne International Airport (GOBD)

Arrival

Time 2026-04-22 17:38
Airport Naples International Airport (LIRN)
Time Latitude Longitude Altitude Speed Heading
2026-04-22 12:47 14.65754 -17.07073 314 ft 0 kts 179°
2026-04-22 12:48 14.65731 -17.07072 314 ft 9 kts 179°
2026-04-22 12:48 14.65663 -17.07080 312 ft 9 kts 203°
2026-04-22 12:48 14.65628 -17.07126 314 ft 8 kts 252°
2026-04-22 12:49 14.65623 -17.07161 312 ft 7 kts 261°
2026-04-22 12:49 14.65624 -17.07212 313 ft 7 kts 274°
2026-04-22 12:49 14.65652 -17.07242 313 ft 21 kts 333°
2026-04-22 12:49 14.66100 -17.07274 309 ft 107 kts 359°
2026-04-22 12:50 14.66720 -17.07277 309 ft 154 kts 359°
2026-04-22 12:50 14.67923 -17.07295 425 ft 193 kts 359°
2026-04-22 12:50 14.69346 -17.07315 884 ft 209 kts
2026-04-22 12:50 14.70611 -17.07344 2525 ft 165 kts 356°
2026-04-22 12:51 14.71811 -17.07355 3283 ft 178 kts 356°
2026-04-22 12:51 14.73141 -17.07367 3666 ft 210 kts 357°
2026-04-22 12:51 14.74729 -17.07384 3820 ft 246 kts 358°
2026-04-22 12:51 14.76543 -17.07399 4029 ft 271 kts 358°
2026-04-22 12:52 14.78424 -17.07312 4642 ft 277 kts
2026-04-22 12:52 14.80253 -17.06662 5311 ft 281 kts 31°
2026-04-22 12:52 14.81668 -17.05273 6027 ft 282 kts 59°
2026-04-22 12:52 14.82338 -17.03378 6640 ft 282 kts 85°
2026-04-22 12:53 14.82467 -17.01348 7251 ft 284 kts 92°
2026-04-22 12:53 14.82461 -16.99296 7944 ft 286 kts 93°
2026-04-22 12:53 14.82440 -16.97235 8646 ft 288 kts 93°
2026-04-22 12:53 14.82421 -16.95162 9361 ft 289 kts 95°
2026-04-22 12:54 14.82241 -16.93092 10008 ft 290 kts 104°
2026-04-22 12:54 14.81659 -16.91068 10199 ft 308 kts 118°
2026-04-22 12:54 14.80472 -16.89160 10336 ft 326 kts 134°
2026-04-22 12:54 14.78652 -16.87663 10466 ft 344 kts 154°
2026-04-22 12:55 14.76342 -16.86930 10861 ft 353 kts 172°
2026-04-22 12:55 14.73903 -16.86626 11482 ft 356 kts 170°
2026-04-22 12:55 14.71570 -16.85719 12080 ft 362 kts 150°
2026-04-22 12:55 14.69649 -16.84013 12726 ft 371 kts 131°
2026-04-22 12:56 14.68349 -16.81687 13319 ft 381 kts 112°
2026-04-22 12:56 14.67834 -16.78976 13901 ft 391 kts 94°
2026-04-22 12:56 14.68175 -16.76168 14412 ft 400 kts 74°
2026-04-22 12:56 14.69353 -16.73562 14938 ft 405 kts 56°
2026-04-22 12:57 14.71264 -16.71408 15457 ft 409 kts 37°
2026-04-22 12:57 14.73695 -16.69898 16018 ft 410 kts 23°
2026-04-22 12:57 14.76307 -16.68790 16583 ft 412 kts 18°
2026-04-22 12:57 14.79018 -16.67784 17147 ft 415 kts 17°
2026-04-22 12:58 14.81762 -16.66805 17730 ft 418 kts 16°
2026-04-22 12:58 14.84530 -16.65829 18278 ft 421 kts 16°
2026-04-22 12:58 14.87312 -16.64851 18791 ft 424 kts 16°
2026-04-22 12:58 14.90112 -16.63867 19302 ft 425 kts 16°
2026-04-22 12:59 14.92924 -16.62879 19817 ft 427 kts 16°
2026-04-22 12:59 14.95744 -16.61888 20315 ft 429 kts 16°
2026-04-22 12:59 14.98576 -16.60893 20816 ft 431 kts 16°
2026-04-22 12:59 15.01424 -16.59892 21315 ft 433 kts 16°
2026-04-22 13:00 15.04254 -16.58897 21802 ft 435 kts 16°
2026-04-22 13:00 15.07124 -16.57881 22296 ft 437 kts 17°
2026-04-22 13:00 15.09969 -16.56698 22798 ft 441 kts 22°
2026-04-22 13:00 15.12708 -16.55209 23265 ft 446 kts 28°
2026-04-22 13:01 15.15322 -16.53462 23690 ft 450 kts 32°
2026-04-22 13:01 15.17854 -16.51539 24058 ft 454 kts 34°
2026-04-22 13:01 15.20351 -16.49508 24420 ft 457 kts 36°
2026-04-22 13:01 15.22830 -16.47434 24766 ft 460 kts 36°
2026-04-22 13:02 15.25286 -16.45362 25118 ft 462 kts 36°
2026-04-22 13:02 15.27787 -16.43253 25470 ft 465 kts 36°
2026-04-22 13:02 15.30315 -16.41131 25813 ft 468 kts 36°
2026-04-22 13:02 15.32852 -16.39007 26164 ft 470 kts 35°
2026-04-22 13:03 15.35405 -16.36875 26484 ft 473 kts 35°
2026-04-22 13:03 15.37978 -16.34728 26825 ft 476 kts 35°
2026-04-22 13:03 15.40564 -16.32570 27115 ft 479 kts 35°
2026-04-22 13:03 15.43165 -16.30395 27438 ft 482 kts 35°
2026-04-22 13:04 15.45781 -16.28208 27751 ft 485 kts 35°
2026-04-22 13:04 15.48423 -16.25998 28072 ft 487 kts 35°
2026-04-22 13:04 15.51071 -16.23784 28366 ft 490 kts 35°
2026-04-22 13:04 15.53693 -16.21592 28664 ft 492 kts 35°
2026-04-22 13:05 15.56373 -16.19351 28945 ft 495 kts 34°
2026-04-22 13:05 15.59059 -16.17105 29238 ft 497 kts 34°
2026-04-22 13:05 15.61762 -16.14844 29535 ft 500 kts 34°
2026-04-22 13:05 15.64478 -16.12570 29854 ft 502 kts 34°
2026-04-22 13:06 15.67209 -16.10284 30118 ft 505 kts 34°
2026-04-22 13:06 15.69954 -16.07984 30356 ft 508 kts 35°
2026-04-22 13:06 15.72717 -16.05670 30593 ft 511 kts 35°
2026-04-22 13:06 15.75496 -16.03340 30791 ft 515 kts 35°
2026-04-22 13:07 15.78291 -16.00996 30994 ft 518 kts 35°
2026-04-22 13:07 15.81094 -15.98645 31258 ft 518 kts 35°
2026-04-22 13:07 15.83902 -15.96287 31531 ft 519 kts 35°
2026-04-22 13:07 15.86711 -15.93928 31785 ft 520 kts 36°
2026-04-22 13:08 15.89526 -15.91565 32014 ft 521 kts 36°
2026-04-22 13:08 15.92313 -15.89223 32266 ft 522 kts 36°
2026-04-22 13:08 15.95142 -15.86846 32508 ft 523 kts 36°
2026-04-22 13:08 15.97971 -15.84468 32739 ft 524 kts 36°
2026-04-22 13:09 16.00814 -15.82077 32967 ft 525 kts 36°
2026-04-22 13:09 16.03651 -15.79690 33206 ft 525 kts 36°
2026-04-22 13:09 16.06496 -15.77292 33402 ft 526 kts 37°
2026-04-22 13:09 16.09344 -15.74890 33633 ft 527 kts 37°
2026-04-22 13:10 16.12197 -15.72482 33813 ft 529 kts 37°
2026-04-22 13:10 16.15064 -15.70064 33967 ft 531 kts 37°
2026-04-22 13:10 16.17930 -15.67647 34154 ft 531 kts 37°
2026-04-22 13:10 16.20768 -15.65254 34344 ft 530 kts 37°
2026-04-22 13:11 16.23636 -15.62834 34560 ft 530 kts 37°
2026-04-22 13:11 16.26497 -15.60420 34764 ft 529 kts 37°
2026-04-22 13:11 16.29363 -15.58000 34874 ft 531 kts 37°
2026-04-22 13:12 16.35131 -15.53130 34911 ft 535 kts 37°
2026-04-22 13:12 16.40896 -15.48256 34913 ft 533 kts 37°
2026-04-22 13:13 16.46661 -15.43378 34915 ft 533 kts 37°
2026-04-22 13:13 16.52396 -15.38522 34911 ft 534 kts 36°
2026-04-22 13:14 16.58171 -15.33628 34911 ft 535 kts 37°
2026-04-22 13:14 16.63939 -15.28737 34904 ft 534 kts 37°
2026-04-22 13:15 16.69675 -15.23868 34905 ft 534 kts 37°
2026-04-22 13:15 16.75434 -15.18966 34907 ft 534 kts 37°
2026-04-22 13:16 16.81193 -15.14064 34903 ft 534 kts 37°
2026-04-22 13:16 16.86961 -15.09156 34906 ft 535 kts 36°
2026-04-22 13:17 16.92730 -15.04245 34903 ft 535 kts 36°
2026-04-22 13:17 16.98500 -14.99328 34903 ft 535 kts 36°
2026-04-22 13:18 17.04232 -14.94439 34905 ft 535 kts 36°
2026-04-22 13:18 17.09994 -14.89521 34899 ft 535 kts 36°
2026-04-22 13:19 17.15767 -14.84590 34899 ft 536 kts 36°
2026-04-22 13:19 17.21533 -14.79659 34901 ft 536 kts 36°
2026-04-22 13:20 17.27304 -14.74722 34896 ft 536 kts 36°
2026-04-22 13:20 17.33074 -14.69780 34897 ft 536 kts 36°
2026-04-22 13:21 17.38834 -14.64834 34898 ft 536 kts 36°
2026-04-22 13:21 17.44597 -14.59882 34898 ft 536 kts 36°
2026-04-22 13:22 17.50358 -14.54934 34902 ft 536 kts 36°
2026-04-22 13:22 17.56128 -14.49976 34896 ft 537 kts 36°
2026-04-22 13:23 17.61872 -14.45037 34895 ft 537 kts 36°
2026-04-22 13:23 17.67646 -14.40066 34895 ft 537 kts 36°
2026-04-22 13:24 17.73419 -14.35093 34893 ft 537 kts 36°
2026-04-22 13:24 17.79192 -14.30115 34894 ft 537 kts 36°
2026-04-22 13:25 17.84959 -14.25138 34891 ft 537 kts 36°
2026-04-22 13:25 17.90731 -14.20152 34897 ft 537 kts 36°
2026-04-22 13:26 17.96500 -14.15165 34891 ft 538 kts 36°
2026-04-22 13:26 18.02272 -14.10163 34889 ft 538 kts 36°
2026-04-22 13:27 18.08039 -14.05159 34886 ft 538 kts 36°
2026-04-22 13:27 18.13805 -14.00158 34887 ft 538 kts 36°
2026-04-22 13:28 18.19537 -13.95185 34884 ft 538 kts 36°
2026-04-22 13:28 18.25307 -13.90175 34885 ft 537 kts 36°
2026-04-22 13:29 18.31073 -13.85164 34886 ft 538 kts 36°
2026-04-22 13:29 18.36852 -13.80138 34886 ft 539 kts 36°
2026-04-22 13:30 18.42630 -13.75107 34885 ft 539 kts 36°
2026-04-22 13:30 18.48402 -13.70077 34883 ft 539 kts 36°
2026-04-22 13:31 18.54183 -13.65035 34882 ft 539 kts 36°
2026-04-22 13:31 18.59951 -13.59999 34881 ft 539 kts 36°
2026-04-22 13:32 18.65727 -13.54945 34884 ft 540 kts 36°
2026-04-22 13:32 18.71503 -13.49883 34886 ft 540 kts 36°
2026-04-22 13:33 18.77254 -13.44844 34882 ft 540 kts 36°
2026-04-22 13:33 18.83040 -13.39774 34880 ft 540 kts 36°
2026-04-22 13:34 18.88823 -13.34702 34878 ft 540 kts 36°
2026-04-22 13:34 18.94608 -13.29624 34880 ft 540 kts 36°
2026-04-22 13:35 19.00387 -13.24546 34889 ft 541 kts 36°
2026-04-22 13:35 19.06179 -13.19452 34884 ft 542 kts 36°
2026-04-22 13:36 19.11973 -13.14351 34876 ft 542 kts 36°
2026-04-22 13:36 19.17726 -13.09282 34880 ft 542 kts 36°
2026-04-22 13:37 19.23516 -13.04175 34877 ft 542 kts 36°
2026-04-22 13:37 19.29297 -12.99067 34883 ft 542 kts 36°
2026-04-22 13:38 19.35083 -12.93941 34875 ft 542 kts 36°
2026-04-22 13:38 19.43769 -12.86251 34878 ft 543 kts 36°
2026-04-22 13:39 19.48580 -12.81990 34878 ft 542 kts 36°
2026-04-22 13:39 19.54369 -12.76858 34882 ft 543 kts 36°
2026-04-22 13:40 19.60157 -12.71722 34878 ft 542 kts 36°
2026-04-22 13:40 19.65945 -12.66581 34884 ft 542 kts 36°
2026-04-22 13:41 19.71725 -12.61441 34890 ft 543 kts 36°
2026-04-22 13:41 19.77513 -12.56290 34889 ft 543 kts 36°
2026-04-22 13:42 19.83309 -12.51127 34889 ft 543 kts 36°
2026-04-22 13:42 19.89063 -12.45995 34889 ft 543 kts 36°
2026-04-22 13:43 19.94840 -12.40830 34889 ft 543 kts 36°
2026-04-22 13:43 20.00620 -12.35653 34890 ft 542 kts 35°
2026-04-22 13:44 20.06396 -12.30483 34895 ft 542 kts 35°
2026-04-22 13:44 20.12174 -12.25311 34893 ft 542 kts 35°
2026-04-22 13:45 20.17909 -12.20172 34895 ft 542 kts 35°
2026-04-22 13:45 20.23676 -12.14999 34890 ft 542 kts 35°
2026-04-22 13:46 20.29435 -12.09827 34889 ft 542 kts 35°
2026-04-22 13:46 20.35202 -12.04643 34889 ft 542 kts 35°
2026-04-22 13:47 20.40920 -11.99497 34895 ft 541 kts 34°
2026-04-22 13:47 20.46671 -11.94317 34889 ft 540 kts 34°
2026-04-22 13:48 20.52411 -11.89142 34887 ft 540 kts 34°
2026-04-22 13:48 20.58159 -11.83946 34886 ft 541 kts 34°
2026-04-22 13:49 20.63895 -11.78751 34886 ft 540 kts 34°
2026-04-22 13:49 20.69628 -11.73562 34886 ft 540 kts 34°
2026-04-22 13:50 20.75365 -11.68368 34901 ft 540 kts 34°
2026-04-22 13:50 20.81062 -11.63205 34891 ft 540 kts 34°
2026-04-22 13:51 20.86830 -11.57977 34888 ft 546 kts 34°
2026-04-22 13:51 20.92637 -11.52704 34886 ft 548 kts 34°
2026-04-22 13:52 20.98432 -11.47431 34886 ft 546 kts 34°
2026-04-22 13:52 21.04223 -11.42159 34883 ft 546 kts 34°
2026-04-22 13:53 21.10013 -11.36884 34884 ft 546 kts 34°
2026-04-22 13:53 21.15811 -11.31597 34891 ft 546 kts 34°
2026-04-22 13:54 21.21547 -11.26351 34885 ft 545 kts 34°
2026-04-22 13:54 21.27315 -11.21066 34883 ft 545 kts 34°
2026-04-22 13:55 21.33086 -11.15782 34883 ft 545 kts 34°
2026-04-22 13:55 21.38852 -11.10501 34884 ft 545 kts 34°
2026-04-22 13:56 21.44618 -11.05214 34885 ft 545 kts 33°
2026-04-22 13:56 21.50377 -10.99928 34884 ft 544 kts 33°
2026-04-22 13:57 21.56105 -10.94665 34880 ft 544 kts 33°
2026-04-22 13:57 21.61859 -10.89371 34879 ft 543 kts 33°
2026-04-22 13:58 21.67598 -10.84085 34879 ft 543 kts 33°
2026-04-22 13:58 21.73341 -10.78792 34878 ft 543 kts 33°
2026-04-22 13:59 21.79040 -10.73532 34898 ft 543 kts 33°
2026-04-22 13:59 21.84787 -10.68215 34880 ft 544 kts 33°
2026-04-22 14:00 21.90522 -10.62896 34881 ft 544 kts 33°
2026-04-22 14:00 21.96264 -10.57574 34880 ft 544 kts 33°
2026-04-22 14:01 22.02001 -10.52254 34878 ft 543 kts 33°
2026-04-22 14:01 22.07724 -10.46944 34878 ft 543 kts 33°
2026-04-22 14:02 22.13458 -10.41618 34881 ft 544 kts 33°
2026-04-22 14:02 22.19193 -10.36285 34879 ft 544 kts 33°
2026-04-22 14:03 22.24901 -10.30969 34878 ft 544 kts 33°
2026-04-22 14:03 22.30645 -10.25614 34881 ft 544 kts 33°
2026-04-22 14:04 22.36351 -10.20288 34879 ft 545 kts 33°
2026-04-22 14:04 22.42078 -10.14937 34878 ft 544 kts 33°
2026-04-22 14:05 22.47796 -10.09581 34896 ft 544 kts 33°
2026-04-22 14:06 22.56381 -10.01522 34877 ft 544 kts 33°
2026-04-22 14:06 22.62110 -9.96146 34876 ft 544 kts 33°
2026-04-22 14:07 22.67796 -9.90807 34873 ft 544 kts 33°
2026-04-22 14:07 22.73518 -9.85427 34873 ft 544 kts 33°
2026-04-22 14:08 22.79237 -9.80044 34873 ft 544 kts 33°
2026-04-22 14:08 22.84958 -9.74653 34872 ft 545 kts 33°
2026-04-22 14:09 22.90677 -9.69258 34869 ft 545 kts 33°
2026-04-22 14:09 22.96394 -9.63857 34869 ft 545 kts 33°
2026-04-22 14:10 23.02184 -9.58576 34867 ft 543 kts 32°
2026-04-22 14:10 23.07845 -9.53187 34867 ft 546 kts 34°
2026-04-22 14:11 23.13506 -9.47679 34865 ft 545 kts 33°
2026-04-22 14:11 23.19199 -9.42219 34870 ft 544 kts 33°
2026-04-22 14:12 23.24906 -9.36797 34861 ft 544 kts 32°
2026-04-22 14:12 23.30573 -9.31416 34867 ft 544 kts 33°
2026-04-22 14:13 23.36279 -9.25985 34865 ft 544 kts 33°
2026-04-22 14:13 23.41978 -9.20551 34868 ft 544 kts 33°
2026-04-22 14:14 23.47681 -9.15106 34865 ft 544 kts 33°
2026-04-22 14:14 23.53376 -9.09661 34865 ft 544 kts 32°
2026-04-22 14:15 23.59059 -9.04221 34860 ft 543 kts 32°
2026-04-22 14:15 23.64736 -8.98782 34864 ft 543 kts 32°
2026-04-22 14:16 23.70371 -8.93379 34866 ft 543 kts 32°
2026-04-22 14:16 23.76039 -8.87919 34865 ft 543 kts 32°
2026-04-22 14:17 23.81712 -8.82453 34895 ft 543 kts 32°
2026-04-22 14:17 23.87351 -8.77020 34863 ft 542 kts 32°
2026-04-22 14:18 23.93008 -8.71568 34862 ft 542 kts 32°
2026-04-22 14:18 23.98650 -8.66121 34867 ft 540 kts 32°
2026-04-22 14:19 24.04279 -8.60683 34862 ft 540 kts 32°
2026-04-22 14:19 24.09912 -8.55237 34862 ft 540 kts 32°
2026-04-22 14:20 24.18356 -8.47054 34867 ft 539 kts 31°
2026-04-22 14:20 24.23922 -8.41649 34862 ft 538 kts 31°
2026-04-22 14:21 24.32320 -8.33491 34863 ft 538 kts 31°
2026-04-22 14:22 24.40689 -8.25316 34862 ft 536 kts 31°
2026-04-22 14:23 24.49059 -8.17145 34862 ft 536 kts 31°
2026-04-22 14:23 24.54636 -8.11698 34862 ft 536 kts 31°
2026-04-22 14:24 24.60207 -8.06249 34862 ft 536 kts 31°
2026-04-22 14:24 24.65749 -8.00820 34862 ft 537 kts 31°
2026-04-22 14:25 24.71322 -7.95355 34862 ft 537 kts 31°
2026-04-22 14:25 24.76894 -7.89884 34862 ft 537 kts 31°
2026-04-22 14:26 24.82474 -7.84398 34875 ft 536 kts 31°
2026-04-22 14:26 24.88026 -7.78930 34862 ft 535 kts 31°
2026-04-22 14:27 24.93574 -7.73463 34862 ft 535 kts 31°
2026-04-22 14:27 24.99091 -7.68008 34903 ft 535 kts 31°
2026-04-22 14:27 25.01863 -7.65261 35018 ft 535 kts 31°
2026-04-22 14:28 25.04628 -7.62520 35136 ft 535 kts 31°
2026-04-22 14:28 25.07396 -7.59778 35261 ft 534 kts 31°
2026-04-22 14:28 25.09225 -7.57966 35345 ft 533 kts 31°
2026-04-22 14:28 25.11987 -7.55230 35449 ft 533 kts 31°
2026-04-22 14:29 25.14745 -7.52497 35611 ft 532 kts 31°
2026-04-22 14:29 25.17496 -7.49771 35717 ft 531 kts 31°
2026-04-22 14:29 25.20248 -7.47042 35823 ft 531 kts 31°
2026-04-22 14:29 25.22999 -7.44312 35963 ft 531 kts 31°
2026-04-22 14:30 25.25743 -7.41588 36076 ft 530 kts 31°
2026-04-22 14:30 25.28489 -7.38859 36202 ft 530 kts 31°
2026-04-22 14:30 25.31206 -7.36156 36323 ft 530 kts 31°
2026-04-22 14:30 25.33944 -7.33432 36446 ft 530 kts 31°
2026-04-22 14:31 25.36685 -7.30702 36569 ft 530 kts 31°
2026-04-22 14:31 25.39420 -7.27977 36697 ft 529 kts 31°
2026-04-22 14:31 25.42158 -7.25248 36821 ft 529 kts 31°
2026-04-22 14:31 25.44894 -7.22518 36949 ft 529 kts 31°
2026-04-22 14:32 25.47628 -7.19788 37119 ft 528 kts 31°
2026-04-22 14:32 25.50358 -7.17060 37242 ft 528 kts 31°
2026-04-22 14:32 25.53081 -7.14338 37390 ft 527 kts 31°
2026-04-22 14:32 25.55805 -7.11613 37502 ft 527 kts 31°
2026-04-22 14:33 25.58520 -7.08893 37636 ft 526 kts 31°
2026-04-22 14:33 25.61231 -7.06169 37775 ft 526 kts 31°
2026-04-22 14:33 25.63938 -7.03445 37896 ft 526 kts 31°
2026-04-22 14:33 25.66653 -7.00716 38033 ft 525 kts 31°
2026-04-22 14:34 25.69362 -6.97994 38169 ft 525 kts 30°
2026-04-22 14:34 25.72033 -6.95311 38292 ft 524 kts 30°
2026-04-22 14:34 25.74742 -6.92589 38435 ft 524 kts 30°
2026-04-22 14:34 25.77444 -6.89873 38562 ft 523 kts 30°
2026-04-22 14:35 25.80137 -6.87164 38755 ft 521 kts 30°
2026-04-22 14:35 25.85528 -6.81737 38871 ft 524 kts 30°
2026-04-22 14:36 25.90943 -6.76283 38873 ft 527 kts 30°
2026-04-22 14:36 25.96376 -6.70798 38874 ft 528 kts 30°
2026-04-22 14:37 26.01821 -6.65292 38852 ft 529 kts 30°
2026-04-22 14:37 26.07272 -6.59772 38871 ft 530 kts 30°
2026-04-22 14:38 26.12724 -6.54245 38873 ft 531 kts 30°
2026-04-22 14:38 26.18185 -6.48702 38863 ft 531 kts 30°
2026-04-22 14:39 26.23594 -6.43186 38859 ft 529 kts 30°
2026-04-22 14:39 26.29008 -6.37656 38860 ft 527 kts 30°
2026-04-22 14:40 26.37125 -6.29384 38855 ft 527 kts 30°
2026-04-22 14:40 26.42421 -6.23687 38855 ft 536 kts 36°
2026-04-22 14:41 26.47256 -6.17227 38859 ft 545 kts 41°
2026-04-22 14:41 26.51931 -6.10563 38859 ft 544 kts 41°
2026-04-22 14:42 26.56600 -6.03993 38859 ft 541 kts 40°
2026-04-22 14:42 26.61312 -5.97454 38857 ft 539 kts 40°
2026-04-22 14:43 26.66028 -5.90931 38853 ft 539 kts 40°
2026-04-22 14:43 26.70740 -5.84397 38852 ft 539 kts 40°
2026-04-22 14:44 26.75419 -5.77891 38887 ft 540 kts 40°
2026-04-22 14:44 26.80128 -5.71330 38858 ft 540 kts 40°
2026-04-22 14:45 26.84815 -5.64785 38856 ft 537 kts 40°
2026-04-22 14:45 26.89486 -5.58259 38855 ft 536 kts 40°
2026-04-22 14:46 26.94122 -5.51772 38855 ft 536 kts 40°
2026-04-22 14:46 26.98777 -5.45224 38852 ft 537 kts 40°
2026-04-22 14:47 27.03434 -5.38675 38849 ft 537 kts 40°
2026-04-22 14:47 27.08101 -5.32115 38891 ft 537 kts 40°
2026-04-22 14:48 27.12747 -5.25572 38851 ft 533 kts 40°
2026-04-22 14:48 27.17369 -5.19057 38851 ft 533 kts 40°
2026-04-22 14:49 27.21987 -5.12543 38848 ft 533 kts 40°
2026-04-22 14:49 27.26607 -5.06016 38852 ft 534 kts 40°
2026-04-22 14:50 27.31227 -4.99476 38850 ft 534 kts 40°
2026-04-22 14:50 27.35814 -4.92969 38858 ft 533 kts 41°
2026-04-22 14:51 27.40412 -4.86437 38863 ft 531 kts 41°
2026-04-22 14:51 27.44991 -4.79922 38852 ft 530 kts 41°
2026-04-22 14:52 27.49559 -4.73391 38853 ft 530 kts 41°
2026-04-22 14:52 27.54122 -4.66866 38854 ft 530 kts 41°
2026-04-22 14:53 27.58667 -4.60370 38852 ft 531 kts 41°
2026-04-22 14:53 27.63237 -4.53832 38864 ft 530 kts 41°
2026-04-22 14:54 27.67785 -4.47312 38857 ft 527 kts 41°
2026-04-22 14:54 27.72322 -4.40805 38855 ft 527 kts 41°
2026-04-22 14:55 27.76859 -4.34287 38856 ft 528 kts 41°
2026-04-22 14:55 27.81394 -4.27760 38856 ft 528 kts 41°
2026-04-22 14:56 27.85929 -4.21223 38856 ft 528 kts 41°
2026-04-22 14:56 27.90429 -4.14725 38856 ft 528 kts 41°
2026-04-22 14:57 27.94955 -4.08182 38864 ft 528 kts 41°
2026-04-22 14:57 27.99482 -4.01607 38863 ft 529 kts 42°
2026-04-22 14:58 28.04004 -3.95022 38864 ft 528 kts 42°
2026-04-22 14:58 28.08481 -3.88508 38866 ft 527 kts 42°
2026-04-22 14:59 28.12982 -3.81961 38880 ft 527 kts 43°
2026-04-22 14:59 28.17480 -3.75409 38868 ft 525 kts 43°
2026-04-22 15:00 28.21966 -3.68862 38867 ft 524 kts 42°
2026-04-22 15:00 28.26437 -3.62330 38870 ft 524 kts 43°
2026-04-22 15:01 28.30886 -3.55819 38864 ft 524 kts 43°
2026-04-22 15:01 28.35352 -3.49273 38874 ft 525 kts 43°
2026-04-22 15:02 28.39806 -3.42731 38890 ft 523 kts 44°
2026-04-22 15:02 28.44253 -3.36190 38871 ft 521 kts 44°
2026-04-22 15:03 28.48681 -3.29663 38869 ft 521 kts 44°
2026-04-22 15:03 28.53099 -3.23115 38876 ft 521 kts 44°
2026-04-22 15:04 28.57516 -3.16575 38879 ft 522 kts 44°
2026-04-22 15:04 28.61915 -3.10063 38879 ft 522 kts 44°
2026-04-22 15:05 28.66339 -3.03510 38889 ft 521 kts 45°
2026-04-22 15:05 28.70745 -2.96967 38881 ft 519 kts 45°
2026-04-22 15:06 28.75137 -2.90438 38881 ft 519 kts 45°
2026-04-22 15:06 28.79530 -2.83899 38882 ft 519 kts 45°
2026-04-22 15:07 28.83888 -2.77401 38882 ft 519 kts 45°
2026-04-22 15:07 28.88275 -2.70849 38885 ft 519 kts 45°
2026-04-22 15:08 28.92659 -2.64291 38895 ft 520 kts 45°
2026-04-22 15:08 28.97026 -2.57746 38893 ft 517 kts 45°
2026-04-22 15:09 29.01379 -2.51189 38893 ft 517 kts 46°
2026-04-22 15:09 29.05699 -2.44671 38891 ft 517 kts 46°
2026-04-22 15:10 29.10042 -2.38126 38892 ft 517 kts 45°
2026-04-22 15:10 29.14389 -2.31573 38894 ft 517 kts 45°
2026-04-22 15:11 29.18737 -2.25007 38894 ft 517 kts 46°
2026-04-22 15:11 29.23073 -2.18449 38893 ft 516 kts 46°
2026-04-22 15:12 29.27402 -2.11889 38886 ft 514 kts 46°
2026-04-22 15:12 29.31682 -2.05396 38892 ft 513 kts 46°
2026-04-22 15:13 29.35986 -1.98856 38892 ft 514 kts 46°
2026-04-22 15:13 29.40289 -1.92308 38891 ft 514 kts 46°
2026-04-22 15:14 29.44592 -1.85747 38891 ft 513 kts 46°
2026-04-22 15:14 29.48150 -1.80312 38891 ft 512 kts 46°
2026-04-22 15:15 29.52415 -1.73759 38891 ft 512 kts 46°
2026-04-22 15:15 29.56679 -1.67205 38892 ft 511 kts 47°
2026-04-22 15:16 29.60937 -1.60668 38893 ft 510 kts 47°
2026-04-22 15:16 29.65166 -1.54173 38892 ft 510 kts 47°
2026-04-22 15:17 29.69413 -1.47638 38890 ft 509 kts 47°
2026-04-22 15:17 29.73637 -1.41125 38889 ft 507 kts 47°
2026-04-22 15:18 29.77857 -1.34611 38891 ft 507 kts 47°
2026-04-22 15:18 29.82080 -1.28083 38902 ft 508 kts 47°
2026-04-22 15:19 29.86297 -1.21551 38892 ft 506 kts 47°
2026-04-22 15:19 29.90491 -1.15043 38891 ft 505 kts 47°
2026-04-22 15:20 29.94643 -1.08592 38894 ft 503 kts 47°
2026-04-22 15:20 29.98813 -1.02099 38897 ft 502 kts 47°
2026-04-22 15:21 30.02956 -0.95606 38893 ft 502 kts 47°
2026-04-22 15:21 30.07107 -0.89106 38894 ft 502 kts 47°
2026-04-22 15:22 30.11261 -0.82608 38911 ft 502 kts 47°
2026-04-22 15:22 30.15378 -0.76159 38915 ft 501 kts 47°
2026-04-22 15:23 30.19501 -0.69689 38901 ft 498 kts 47°
2026-04-22 15:23 30.23607 -0.63239 38902 ft 498 kts 47°
2026-04-22 15:24 30.27711 -0.56781 38898 ft 498 kts 47°
2026-04-22 15:24 30.31814 -0.50314 38898 ft 498 kts 48°
2026-04-22 15:25 30.35916 -0.43837 38898 ft 499 kts 48°
2026-04-22 15:25 30.39998 -0.37382 38919 ft 498 kts 48°
2026-04-22 15:26 30.44083 -0.30909 38905 ft 497 kts 48°
2026-04-22 15:26 30.48161 -0.24433 38897 ft 496 kts 48°
2026-04-22 15:27 30.52217 -0.17951 38904 ft 496 kts 48°
2026-04-22 15:27 30.56256 -0.11501 38905 ft 497 kts 48°
2026-04-22 15:28 30.60324 -0.05012 38899 ft 497 kts 48°
2026-04-22 15:28 30.64391 0.01481 38913 ft 497 kts 49°
2026-04-22 15:29 30.68445 0.07969 38900 ft 494 kts 49°
2026-04-22 15:30 30.74471 0.17627 38905 ft 494 kts 49°
2026-04-22 15:30 30.78501 0.24099 38905 ft 494 kts 49°
2026-04-22 15:31 30.82540 0.30596 38904 ft 495 kts 49°
2026-04-22 15:31 30.86568 0.37087 38904 ft 495 kts 49°
2026-04-22 15:32 30.90590 0.43580 38904 ft 493 kts 49°
2026-04-22 15:32 30.94597 0.50060 38906 ft 492 kts 49°
2026-04-22 15:33 30.98567 0.56506 38908 ft 491 kts 49°
2026-04-22 15:33 31.02534 0.62978 38909 ft 490 kts 49°
2026-04-22 15:34 31.06518 0.69464 38908 ft 490 kts 49°
2026-04-22 15:34 31.10468 0.75893 38908 ft 491 kts 49°
2026-04-22 15:35 31.13779 0.81288 38912 ft 490 kts 49°
2026-04-22 15:35 31.18402 0.88836 38910 ft 488 kts 49°
2026-04-22 15:36 31.22354 0.95299 38908 ft 489 kts 50°
2026-04-22 15:36 31.26280 1.01731 38912 ft 488 kts 50°
2026-04-22 15:37 31.30213 1.08187 38902 ft 487 kts 50°
2026-04-22 15:37 31.34145 1.14648 38925 ft 487 kts 50°
2026-04-22 15:38 31.38070 1.21110 38912 ft 486 kts 50°
2026-04-22 15:38 31.43961 1.30695 38909 ft 483 kts 49°
2026-04-22 15:39 31.48320 1.36633 38907 ft 479 kts 40°
2026-04-22 15:39 31.53148 1.42010 38916 ft 478 kts 38°
2026-04-22 15:40 31.58044 1.47288 38908 ft 477 kts 38°
2026-04-22 15:40 31.62873 1.52561 38908 ft 477 kts 38°
2026-04-22 15:41 31.67711 1.57897 38909 ft 476 kts 39°
2026-04-22 15:41 31.72532 1.63232 38908 ft 476 kts 39°
2026-04-22 15:42 31.77343 1.68562 38905 ft 476 kts 39°
2026-04-22 15:42 31.82146 1.73889 38907 ft 476 kts 39°
2026-04-22 15:43 31.86954 1.79230 38909 ft 476 kts 39°
2026-04-22 15:43 31.91748 1.84566 39110 ft 472 kts 39°
2026-04-22 15:44 31.94138 1.87228 39221 ft 471 kts 39°
2026-04-22 15:44 31.96518 1.89881 39347 ft 470 kts 39°
2026-04-22 15:44 31.98889 1.92526 39469 ft 469 kts 39°
2026-04-22 15:44 32.01260 1.95172 39590 ft 468 kts 39°
2026-04-22 15:45 32.03622 1.97810 39714 ft 468 kts 39°
2026-04-22 15:45 32.05983 2.00452 39833 ft 467 kts 39°
2026-04-22 15:45 32.08334 2.03095 39960 ft 467 kts 39°
2026-04-22 15:45 32.10681 2.05737 40080 ft 466 kts 39°
2026-04-22 15:46 32.13026 2.08375 40199 ft 466 kts 39°
2026-04-22 15:46 32.15344 2.10980 40320 ft 465 kts 39°
2026-04-22 15:46 32.17687 2.13612 40445 ft 465 kts 39°
2026-04-22 15:46 32.20030 2.16245 40567 ft 464 kts 39°
2026-04-22 15:47 32.22365 2.18869 40723 ft 462 kts 39°
2026-04-22 15:47 32.24686 2.21480 40860 ft 461 kts 39°
2026-04-22 15:47 32.29354 2.26733 40907 ft 464 kts 39°
2026-04-22 15:48 32.34050 2.32025 40915 ft 468 kts 39°
2026-04-22 15:48 32.38785 2.37372 40908 ft 472 kts 39°
2026-04-22 15:49 32.43544 2.42755 40907 ft 474 kts 39°
2026-04-22 15:49 32.48296 2.48139 40902 ft 476 kts 39°
2026-04-22 15:50 32.53087 2.53576 40910 ft 477 kts 39°
2026-04-22 15:50 32.57884 2.59027 40902 ft 478 kts 40°
2026-04-22 15:51 32.62690 2.64497 40912 ft 478 kts 40°
2026-04-22 15:51 32.67495 2.69983 40910 ft 479 kts 40°
2026-04-22 15:52 32.72265 2.75458 40908 ft 480 kts 40°
2026-04-22 15:52 32.77077 2.80974 40900 ft 481 kts 40°
2026-04-22 15:53 32.81899 2.86498 40902 ft 481 kts 40°
2026-04-22 15:53 32.86712 2.92019 40924 ft 481 kts 40°
2026-04-22 15:54 32.91526 2.97550 40943 ft 481 kts 40°
2026-04-22 15:54 32.96346 3.03096 40961 ft 481 kts 40°
2026-04-22 15:55 33.01169 3.08656 40975 ft 482 kts 41°
2026-04-22 15:55 33.05958 3.14184 40908 ft 483 kts 41°
2026-04-22 15:56 33.10786 3.19768 40908 ft 484 kts 41°
2026-04-22 15:56 33.15614 3.25360 40912 ft 484 kts 41°
2026-04-22 15:57 33.20449 3.30970 40912 ft 484 kts 41°
2026-04-22 15:57 33.25282 3.36586 40914 ft 484 kts 41°
2026-04-22 15:58 33.30070 3.42185 40909 ft 484 kts 41°
2026-04-22 15:58 33.34889 3.47825 40917 ft 484 kts 41°
2026-04-22 15:59 33.39708 3.53458 40913 ft 484 kts 41°
2026-04-22 15:59 33.44528 3.59095 40915 ft 484 kts 41°
2026-04-22 16:00 33.49343 3.64736 40916 ft 484 kts 41°
2026-04-22 16:00 33.54164 3.70393 40917 ft 484 kts 41°
2026-04-22 16:01 33.58971 3.76044 40914 ft 484 kts 41°
2026-04-22 16:01 33.63749 3.81668 40920 ft 484 kts 41°
2026-04-22 16:02 33.68566 3.87349 40910 ft 485 kts 41°
2026-04-22 16:02 33.73385 3.93041 40912 ft 485 kts 41°
2026-04-22 16:03 33.78195 3.98734 40913 ft 486 kts 41°
2026-04-22 16:03 33.83009 4.04439 40908 ft 486 kts 41°
2026-04-22 16:04 33.87005 4.09193 40912 ft 486 kts 41°
2026-04-22 16:04 33.91802 4.14928 40917 ft 486 kts 42°
2026-04-22 16:05 33.96606 4.20662 40903 ft 486 kts 41°
2026-04-22 16:05 34.01410 4.26395 40911 ft 486 kts 41°
2026-04-22 16:06 34.06185 4.32099 40902 ft 486 kts 41°
2026-04-22 16:06 34.10999 4.37860 40900 ft 487 kts 42°
2026-04-22 16:07 34.15804 4.43621 40901 ft 487 kts 42°
2026-04-22 16:07 34.20603 4.49385 40899 ft 487 kts 42°
2026-04-22 16:08 34.25403 4.55160 40906 ft 487 kts 42°
2026-04-22 16:08 34.30198 4.60939 40897 ft 487 kts 42°
2026-04-22 16:09 34.34999 4.66735 40899 ft 488 kts 42°
2026-04-22 16:09 34.39796 4.72536 40904 ft 488 kts 42°
2026-04-22 16:10 34.44597 4.78354 40895 ft 488 kts 42°
2026-04-22 16:10 34.49379 4.84189 40895 ft 488 kts 42°
2026-04-22 16:11 34.54167 4.90029 40890 ft 488 kts 42°
2026-04-22 16:11 34.58925 4.95828 40893 ft 488 kts 42°
2026-04-22 16:12 34.63724 5.01679 40909 ft 489 kts 42°
2026-04-22 16:12 34.68529 5.07550 40890 ft 490 kts 42°
2026-04-22 16:13 34.73332 5.13429 40890 ft 490 kts 42°
2026-04-22 16:13 34.78140 5.19324 40885 ft 490 kts 42°
2026-04-22 16:14 34.82915 5.25190 40891 ft 491 kts 43°
2026-04-22 16:14 34.87719 5.31102 40904 ft 491 kts 43°
2026-04-22 16:15 34.92518 5.37017 40904 ft 491 kts 43°
2026-04-22 16:15 34.97324 5.42953 40900 ft 491 kts 43°
2026-04-22 16:16 35.02123 5.48889 40903 ft 491 kts 43°
2026-04-22 16:16 35.06904 5.54842 40913 ft 491 kts 43°
2026-04-22 16:17 35.11683 5.60802 40916 ft 491 kts 43°
2026-04-22 16:17 35.16435 5.66718 40935 ft 491 kts 43°
2026-04-22 16:18 35.21221 5.72682 40937 ft 491 kts 43°
2026-04-22 16:18 35.26008 5.78654 40971 ft 491 kts 43°
2026-04-22 16:19 35.30760 5.84597 40970 ft 491 kts 43°
2026-04-22 16:19 35.35547 5.90592 40985 ft 491 kts 43°
2026-04-22 16:20 35.40337 5.96604 40997 ft 492 kts 43°
2026-04-22 16:20 35.45082 6.02569 41002 ft 492 kts 43°
2026-04-22 16:21 35.49857 6.08583 41007 ft 492 kts 43°
2026-04-22 16:21 35.54626 6.14601 41020 ft 492 kts 43°
2026-04-22 16:22 35.61787 6.23661 41039 ft 492 kts 43°
2026-04-22 16:23 35.68916 6.32751 41047 ft 492 kts 43°
2026-04-22 16:23 35.73648 6.38775 41047 ft 492 kts 43°
2026-04-22 16:24 35.80790 6.47873 41041 ft 493 kts 43°
2026-04-22 16:25 35.85560 6.53962 41024 ft 493 kts 43°
2026-04-22 16:25 35.92697 6.63097 40990 ft 493 kts 43°
2026-04-22 16:26 35.97456 6.69202 40997 ft 493 kts 43°
2026-04-22 16:26 36.02211 6.75313 41000 ft 493 kts 43°
2026-04-22 16:27 36.06932 6.81391 40998 ft 493 kts 43°
2026-04-22 16:27 36.11681 6.87517 41000 ft 493 kts 43°
2026-04-22 16:28 36.16435 6.93661 41000 ft 494 kts 43°
2026-04-22 16:28 36.21179 6.99820 40996 ft 494 kts 44°
2026-04-22 16:29 36.25910 7.05994 40991 ft 494 kts 44°
2026-04-22 16:29 36.30656 7.12176 40992 ft 494 kts 44°
2026-04-22 16:30 36.35367 7.18311 40990 ft 494 kts 44°
2026-04-22 16:30 36.40105 7.24491 40989 ft 494 kts 44°
2026-04-22 16:31 36.44845 7.30686 40988 ft 494 kts 44°
2026-04-22 16:31 36.49588 7.36897 40985 ft 494 kts 44°
2026-04-22 16:32 36.54323 7.43110 40991 ft 495 kts 44°
2026-04-22 16:32 36.59062 7.49339 40984 ft 496 kts 44°
2026-04-22 16:33 36.63771 7.55542 40980 ft 496 kts 44°
2026-04-22 16:33 36.68506 7.61791 40976 ft 496 kts 44°
2026-04-22 16:34 36.73244 7.68055 40970 ft 497 kts 44°
2026-04-22 16:34 36.77982 7.74344 40957 ft 498 kts 44°
2026-04-22 16:35 36.82727 7.80656 40956 ft 498 kts 43°
2026-04-22 16:35 36.87655 7.86646 40958 ft 497 kts 40°
2026-04-22 16:36 36.92730 7.92514 40973 ft 497 kts 39°
2026-04-22 16:36 36.97805 7.98393 40985 ft 497 kts 39°
2026-04-22 16:37 37.02877 8.04318 40980 ft 498 kts 39°
2026-04-22 16:37 37.07907 8.10220 40984 ft 498 kts 39°
2026-04-22 16:38 37.12970 8.16174 40985 ft 499 kts 39°
2026-04-22 16:38 37.18033 8.22137 40985 ft 499 kts 40°
2026-04-22 16:39 37.23089 8.28103 40989 ft 499 kts 39°
2026-04-22 16:39 37.28116 8.34046 40988 ft 499 kts 39°
2026-04-22 16:40 37.33165 8.40028 40991 ft 499 kts 39°
2026-04-22 16:41 37.40742 8.49024 40988 ft 499 kts 39°
2026-04-22 16:41 37.45785 8.55046 40988 ft 499 kts 39°
2026-04-22 16:42 37.50816 8.61080 40990 ft 499 kts 39°
2026-04-22 16:42 37.55810 8.67060 40990 ft 498 kts 39°
2026-04-22 16:43 37.60837 8.73079 40994 ft 498 kts 39°
2026-04-22 16:43 37.65863 8.79107 40996 ft 498 kts 39°
2026-04-22 16:44 37.70886 8.85145 40998 ft 498 kts 39°
2026-04-22 16:44 37.75894 8.91177 40998 ft 497 kts 39°
2026-04-22 16:45 37.80869 8.97180 41001 ft 497 kts 39°
2026-04-22 16:45 37.85897 9.03260 41017 ft 497 kts 39°
2026-04-22 16:46 37.90855 9.09267 41007 ft 496 kts 39°
2026-04-22 16:46 37.95830 9.15308 41004 ft 495 kts 39°
2026-04-22 16:47 38.00807 9.21360 41005 ft 496 kts 39°
2026-04-22 16:47 38.04971 9.26445 41007 ft 496 kts 39°
2026-04-22 16:48 38.10731 9.33520 41009 ft 496 kts 39°
2026-04-22 16:48 38.15705 9.39620 41007 ft 496 kts 39°
2026-04-22 16:49 38.20673 9.45713 41009 ft 496 kts 39°
2026-04-22 16:49 38.25641 9.51815 41010 ft 496 kts 39°
2026-04-22 16:50 38.30579 9.57893 41002 ft 496 kts 39°
2026-04-22 16:50 38.35538 9.64010 41004 ft 496 kts 39°
2026-04-22 16:51 38.40487 9.70127 41003 ft 495 kts 39°
2026-04-22 16:51 38.45428 9.76247 41010 ft 495 kts 39°
2026-04-22 16:52 38.50369 9.82378 41017 ft 494 kts 40°
2026-04-22 16:52 38.54463 9.87469 41019 ft 493 kts 39°
2026-04-22 16:53 38.60167 9.94575 41017 ft 492 kts 39°
2026-04-22 16:53 38.65065 10.00703 41017 ft 493 kts 40°
2026-04-22 16:54 38.69132 10.05824 41034 ft 493 kts 40°
2026-04-22 16:54 38.74030 10.11981 41025 ft 493 kts 40°
2026-04-22 16:55 38.78925 10.18131 41024 ft 492 kts 40°
2026-04-22 16:55 38.83815 10.24284 41025 ft 492 kts 40°
2026-04-22 16:56 38.88701 10.30443 41022 ft 492 kts 40°
2026-04-22 16:56 38.93577 10.36603 41025 ft 492 kts 40°
2026-04-22 16:57 38.98416 10.42730 41023 ft 490 kts 40°
2026-04-22 16:57 39.03271 10.48889 41028 ft 490 kts 40°
2026-04-22 16:58 39.08127 10.55060 41029 ft 490 kts 40°
2026-04-22 16:58 39.12981 10.61243 41032 ft 490 kts 40°
2026-04-22 16:59 39.17824 10.67425 41026 ft 489 kts 40°
2026-04-22 16:59 39.22621 10.73563 41029 ft 488 kts 40°
2026-04-22 17:00 39.27430 10.79766 41031 ft 489 kts 40°
2026-04-22 17:00 39.34646 10.89069 41033 ft 489 kts 40°
2026-04-22 17:01 39.39455 10.95265 41028 ft 488 kts 40°
2026-04-22 17:01 39.44243 11.01447 41017 ft 479 kts 40°
2026-04-22 17:02 39.48934 11.07519 41013 ft 478 kts 40°
2026-04-22 17:02 39.53652 11.13627 41031 ft 481 kts 40°
2026-04-22 17:03 39.58394 11.19784 41032 ft 481 kts 41°
2026-04-22 17:03 39.63110 11.25924 41031 ft 480 kts 41°
2026-04-22 17:04 39.67822 11.32069 41035 ft 480 kts 40°
2026-04-22 17:04 39.72529 11.38221 41043 ft 480 kts 41°
2026-04-22 17:05 39.77211 11.44351 41035 ft 480 kts 41°
2026-04-22 17:05 39.81921 11.50536 40791 ft 483 kts 41°
2026-04-22 17:06 39.84282 11.53658 40450 ft 485 kts 41°
2026-04-22 17:06 39.86647 11.56793 40036 ft 483 kts 41°
2026-04-22 17:06 39.89002 11.59913 39569 ft 482 kts 41°
2026-04-22 17:06 39.91360 11.63033 39116 ft 481 kts 41°
2026-04-22 17:07 39.93681 11.66099 38652 ft 481 kts 41°
2026-04-22 17:07 39.96035 11.69209 38113 ft 481 kts 40°
2026-04-22 17:07 39.98387 11.72319 37607 ft 482 kts 40°
2026-04-22 17:07 40.00750 11.75445 37147 ft 484 kts 40°
2026-04-22 17:08 40.03119 11.78583 36694 ft 486 kts 40°
2026-04-22 17:08 40.05498 11.81737 36215 ft 487 kts 40°
2026-04-22 17:08 40.07873 11.84891 35754 ft 488 kts 40°
2026-04-22 17:08 40.10257 11.88061 35247 ft 489 kts 40°
2026-04-22 17:09 40.12616 11.91201 34743 ft 490 kts 40°
2026-04-22 17:09 40.15003 11.94382 34246 ft 491 kts 40°
2026-04-22 17:09 40.17399 11.97578 33687 ft 492 kts 40°
2026-04-22 17:09 40.19800 12.00783 33145 ft 493 kts 40°
2026-04-22 17:10 40.22212 12.04006 32622 ft 495 kts 40°
2026-04-22 17:10 40.24600 12.07200 32113 ft 497 kts 40°
2026-04-22 17:10 40.27029 12.10452 31602 ft 500 kts 40°
2026-04-22 17:10 40.29467 12.13720 31062 ft 502 kts 40°
2026-04-22 17:11 40.31911 12.17001 30446 ft 504 kts 40°
2026-04-22 17:11 40.34365 12.20301 29789 ft 506 kts 40°
2026-04-22 17:11 40.36824 12.23609 29128 ft 507 kts 40°
2026-04-22 17:11 40.39287 12.26928 28487 ft 509 kts 40°
2026-04-22 17:12 40.41749 12.30266 27873 ft 510 kts 40°
2026-04-22 17:12 40.44208 12.33612 27257 ft 509 kts 40°
2026-04-22 17:12 40.46663 12.36953 26664 ft 505 kts 40°
2026-04-22 17:12 40.49091 12.40257 26046 ft 499 kts 40°
2026-04-22 17:13 40.51493 12.43521 25454 ft 495 kts 40°
2026-04-22 17:13 40.53874 12.46754 24863 ft 490 kts 40°
2026-04-22 17:13 40.56239 12.49965 24271 ft 486 kts 40°
2026-04-22 17:13 40.58553 12.53108 23681 ft 482 kts 40°
2026-04-22 17:14 40.60873 12.56263 23040 ft 478 kts 40°
2026-04-22 17:14 40.63175 12.59397 22429 ft 473 kts 40°
2026-04-22 17:14 40.65456 12.62507 21867 ft 470 kts 40°
2026-04-22 17:14 40.67715 12.65591 21286 ft 464 kts 40°
2026-04-22 17:15 40.69199 12.67619 20912 ft 464 kts 40°
2026-04-22 17:15 40.72196 12.71711 20144 ft 460 kts 40°
2026-04-22 17:15 40.74409 12.74741 19609 ft 456 kts 40°
2026-04-22 17:15 40.76575 12.77709 19064 ft 453 kts 40°
2026-04-22 17:16 40.78756 12.80702 18522 ft 450 kts 40°
2026-04-22 17:16 40.80923 12.83676 17927 ft 447 kts 40°
2026-04-22 17:16 40.83066 12.86622 17369 ft 442 kts 40°
2026-04-22 17:16 40.85180 12.89534 17059 ft 439 kts 41°
2026-04-22 17:17 40.87178 12.92601 16959 ft 444 kts 49°
2026-04-22 17:17 40.88675 12.96205 16898 ft 452 kts 66°
2026-04-22 17:17 40.89398 13.00278 16571 ft 461 kts 82°
2026-04-22 17:17 40.89280 13.04506 15981 ft 460 kts 99°
2026-04-22 17:18 40.88360 13.08519 15446 ft 455 kts 114°
2026-04-22 17:18 40.86848 13.12166 14896 ft 450 kts 122°
2026-04-22 17:18 40.85202 13.15615 14346 ft 448 kts 122°
2026-04-22 17:18 40.83590 13.19136 13751 ft 448 kts 120°
2026-04-22 17:19 40.80714 13.26330 12520 ft 436 kts 115°
2026-04-22 17:19 40.78165 13.33482 11488 ft 424 kts 114°
2026-04-22 17:20 40.75787 13.40337 11184 ft 388 kts 113°
2026-04-22 17:20 40.73144 13.45950 10972 ft 339 kts 138°
2026-04-22 17:21 40.71382 13.47845 10963 ft 315 kts 146°
2026-04-22 17:21 40.67980 13.50972 10962 ft 292 kts 148°
2026-04-22 17:22 40.64667 13.53969 10963 ft 291 kts 148°
2026-04-22 17:22 40.63002 13.55491 10960 ft 291 kts 147°
2026-04-22 17:22 40.59677 13.58551 10962 ft 291 kts 147°
2026-04-22 17:23 40.58017 13.60084 10962 ft 291 kts 147°
2026-04-22 17:23 40.54703 13.63149 10964 ft 291 kts 147°
2026-04-22 17:23 40.53047 13.64684 10935 ft 291 kts 147°
2026-04-22 17:24 40.51397 13.66214 10934 ft 290 kts 148°
2026-04-22 17:24 40.49746 13.67745 10938 ft 290 kts 148°
2026-04-22 17:24 40.48184 13.69422 10927 ft 292 kts 132°
2026-04-22 17:24 40.47252 13.71692 10880 ft 277 kts 98°
2026-04-22 17:25 40.47373 13.74090 10877 ft 263 kts 63°
2026-04-22 17:25 40.48225 13.76178 10914 ft 259 kts 49°
2026-04-22 17:25 40.49255 13.78119 10918 ft 259 kts 47°
2026-04-22 17:25 40.50310 13.80043 10916 ft 259 kts 47°
2026-04-22 17:26 40.51374 13.81941 10911 ft 256 kts 42°
2026-04-22 17:26 40.52685 13.83406 10917 ft 241 kts 18°
2026-04-22 17:26 40.54243 13.83879 10841 ft 224 kts 350°
2026-04-22 17:26 40.55683 13.83309 10784 ft 215 kts 327°
2026-04-22 17:27 40.56940 13.82242 10723 ft 216 kts 323°
2026-04-22 17:27 40.58173 13.81109 10673 ft 215 kts 322°
2026-04-22 17:27 40.59493 13.80116 10313 ft 223 kts 336°
2026-04-22 17:27 40.61020 13.79816 9918 ft 231 kts
2026-04-22 17:28 40.62555 13.80542 9469 ft 243 kts 30°
2026-04-22 17:28 40.63749 13.82149 9038 ft 244 kts 45°
2026-04-22 17:28 40.64749 13.83937 8573 ft 242 kts 49°
2026-04-22 17:28 40.65722 13.85747 8141 ft 241 kts 49°
2026-04-22 17:29 40.66686 13.87539 7718 ft 238 kts 49°
2026-04-22 17:29 40.67644 13.89323 7323 ft 237 kts 49°
2026-04-22 17:29 40.68587 13.91082 6954 ft 233 kts 50°
2026-04-22 17:29 40.69478 13.92758 6592 ft 213 kts 50°
2026-04-22 17:30 40.70294 13.94297 6225 ft 196 kts 50°
2026-04-22 17:30 40.71036 13.95692 5862 ft 174 kts 50°
2026-04-22 17:30 40.71690 13.96926 5653 ft 158 kts 49°
2026-04-22 17:30 40.72309 13.98084 5434 ft 152 kts 50°
2026-04-22 17:31 40.72910 13.99210 5234 ft 150 kts 50°
2026-04-22 17:31 40.73506 14.00325 5003 ft 147 kts 50°
2026-04-22 17:31 40.74007 14.01264 4824 ft 146 kts 51°
2026-04-22 17:31 40.74582 14.02341 4595 ft 144 kts 51°
2026-04-22 17:32 40.75152 14.03411 4385 ft 144 kts 51°
2026-04-22 17:32 40.75724 14.04486 4197 ft 142 kts 51°
2026-04-22 17:32 40.76286 14.05544 4075 ft 140 kts 51°
2026-04-22 17:32 40.76858 14.06616 3850 ft 153 kts 51°
2026-04-22 17:33 40.77283 14.07409 3737 ft 164 kts 52°
2026-04-22 17:33 40.78145 14.09035 3382 ft 151 kts 53°
2026-04-22 17:33 40.78700 14.10086 3033 ft 130 kts 53°
2026-04-22 17:33 40.79208 14.11046 2967 ft 126 kts 53°
2026-04-22 17:34 40.79701 14.11975 3051 ft 128 kts 53°
2026-04-22 17:34 40.80202 14.12922 3012 ft 127 kts 53°
2026-04-22 17:34 40.80706 14.13873 3000 ft 127 kts 54°
2026-04-22 17:34 40.81211 14.14828 2996 ft 126 kts 53°
2026-04-22 17:35 40.81717 14.15784 2953 ft 128 kts 53°
2026-04-22 17:35 40.82221 14.16737 2737 ft 125 kts 54°
2026-04-22 17:35 40.82715 14.17671 2547 ft 122 kts 55°
2026-04-22 17:35 40.83200 14.18586 2353 ft 121 kts 55°
2026-04-22 17:36 40.83678 14.19496 2172 ft 119 kts 54°
2026-04-22 17:36 40.84148 14.20383 1959 ft 119 kts 54°
2026-04-22 17:36 40.84629 14.21294 1782 ft 119 kts 54°
2026-04-22 17:36 40.85106 14.22192 1551 ft 124 kts 56°
2026-04-22 17:37 40.85606 14.23142 1374 ft 127 kts 56°
2026-04-22 17:37 40.86114 14.24104 1235 ft 128 kts 56°
2026-04-22 17:37 40.86622 14.25070 959 ft 126 kts 53°
2026-04-22 17:37 40.87127 14.26025 832 ft 124 kts 54°
2026-04-22 17:38 40.87620 14.26959 530 ft 126 kts 53°
2026-04-22 17:38 40.88114 14.27905 362 ft 117 kts 53°
2026-04-22 17:38 40.88363 14.28378 295 ft 0 kts 55°